NOAA 16 DEB, 41283

Orbit data source: Space-Track

NOAA 16 DEB, 41283 is space debris in SSO originally from a launch on Thu, 21 Sep 2000 UTC launched from the Air Force Western Test Range (AFWTR). Debris objects in space refer to the collection of defunct objects orbiting the Earth. Examples of debris include non-operational satellites, rocket bodies, and fragments generated from explosions, collisions, or faulty payload assembly.

Loading next visibility...
Identifier
41283, 2000-055GK
Orbit
SSO
Country
Flag of USUS
Related business
Manufacturer
Unknown
Mission
Spacecraft
Bus & Motor
Unknown
Mass
Unknown
Launch date (UTC)
2000-09-21 (25 years ago)
Launch vehicle
Unknown
Launch site
Air Force Western Test Range (AFWTR)
Object type
Payload
Rocket body
Debris
Shape & HBR
Unknown shape, 0.1 m
Radar Cross Section
Small (<0.1 m²)

Expand to show TLE details & history
Last TLE update: 10 hours ago

TLE from 10 hours ago
0 NOAA 16 DEB
1 41283U 00055GK  25355.17247572  .00001814  00000-0  10655-2 0  9996
2 41283  98.8313 332.4002 0059667 140.1871 220.3700 14.08444889511574
Epoch: 2025-12-21T04:08Z
TLE epoch observation values (Epoch: 2025-12-21T04:08:21.902Z)
Latitude
0.00007°
Longitude
-179.67981°
Altitude
900.632 km
Speed
7.385 km/s
True Right ascension
22h 09m 36s
True Declination
0° 00' 00"
Sunlit
Object was in daylight at epoch
Visualization orbit readout
Latitude
Unknown
Longitude
Unknown
Altitude
Unknown
Speed
Unknown
Apparent Right ascension
Unknown
Apparent Declination
Unknown
Sunlit
N/A
Visualization observer readout
Local Sidereal Time
12:54:48
Azimuth
Unknown
Elevation
Unknown
Doppler factor
Unknown
Orbital elements
Apogee altitude
905.077 km
Perigee altitude
818.679 km
Semi-major axis
7,240.015 km
Eccentricity
0.00597
Inclination
98.8313°
RAAN
332.4002°
Arg. of periapsis
140.1871°
True anomaly
219.92964°
Mean anomaly
220.37°
Eccentric anomaly
220.14957°
Mean motion
3.52317 °/min
Orbital period
102.18 mins
BSTAR
0.0010655
Loading maneuver chart data...
Computing Atmospheric mass density...
Loading historical data...
Loading historical data...
Loading historical data...
Loading historical data...
Loading historical data...
Loading historical data...
Loading historical data...

Documentation

Showing up to 5 results
|